FW9412 Weather Reports


Display with metric or nautical units.
time (UTC)temp
F
wind
direction
speed
MPH
gust
MPH
rain 1hr
in
rain 24hr
in
rain mn
in
humidity
%
barometer
mb
20260506044400 47 156 0.0 0.0 0.00 0.00 0.00 96 1009.5
20260506043857 46 143 0.0 0.0 0.00 0.00 0.00 96 1009.4
20260506043354 46 147 0.0 0.0 0.00 0.00 0.00 96 1009.4
20260506042852 46 147 0.0 0.0 0.00 0.00 0.00 96 1009.5
20260506042351 46 142 0.0 0.0 0.00 0.00 0.00 96 1009.7
20260506041849 46 150 0.0 0.0 0.00 0.00 0.00 96 1009.4
20260506041346 46 150 0.0 0.0 0.00 0.00 0.00 96 1009.7
20260506040843 46 149 0.0 0.0 0.00 0.00 0.00 95 1009.6
20260506040341 46 149 0.0 0.0 0.00 0.00 0.00 95 1009.7
20260506035836 46 149 0.0 0.0 0.00 0.29 0.29 95 1009.4
20260506035334 46 149 0.0 0.0 0.00 0.29 0.29 95 1009.5
20260506034831 46 149 0.0 0.0 0.00 0.29 0.29 95 1009.7
20260506034328 46 149 0.0 0.0 0.07 0.29 0.29 95 1009.6
20260506033825 46 145 0.0 0.0 0.19 0.29 0.29 95 1009.4
20260506033322 46 150 0.0 0.0 0.17 0.28 0.28 95 1010.1
20260506032819 46 158 0.0 0.0 0.17 0.26 0.26 95 1010.0
20260506032316 46 154 0.0 0.0 0.19 0.25 0.25 95 1009.9
20260506031813 46 146 0.0 0.0 0.12 0.23 0.23 95 1010.3
20260506031310 46 144 0.0 0.0 0.12 0.22 0.22 95 1009.6
20260506030808 46 147 0.0 0.0 0.07 0.21 0.21 95 1009.6
20260506030306 46 142 0.0 0.0 0.05 0.20 0.20 95 1009.9
20260506025802 46 142 0.0 1.0 0.05 0.20 0.20 95 1010.0
20260506025258 46 114 1.0 1.0 0.07 0.19 0.19 95 1009.9
20260506024756 46 135 0.0 1.0 0.07 0.19 0.19 94 1010.0
20260506024252 46 157 0.0 0.0 0.05 0.18 0.18 94 1010.3
20260506023748 46 149 0.0 0.0 0.12 0.18 0.18 94 1010.0
20260506023246 46 150 0.0 0.0 0.07 0.17 0.17 94 1010.2
20260506022742 46 142 1.0 1.0 0.00 0.16 0.16 94 1010.3
20260506022240 46 154 0.0 0.0 0.07 0.16 0.16 94 1010.2
20260506021738 46 154 0.0 0.0 0.12 0.16 0.16 94 1010.1
20260506021235 46 145 0.0 0.0 0.12 0.15 0.15 94 1010.5
20260506020731 46 142 0.0 0.0 0.19 0.14 0.14 94 1010.3
20260506020230 46 158 0.0 0.0 0.12 0.13 0.13 93 1010.4
20260506015727 46 185 0.0 1.0 0.05 0.11 0.11 93 1010.2
20260506015224 46 157 0.0 0.0 0.05 0.11 0.11 93 1010.0
20260506014721 46 134 0.0 0.0 0.17 0.11 0.11 93 1009.7
20260506014217 46 145 0.0 0.0 0.12 0.10 0.10 93 1009.4
20260506013715 46 153 0.0 0.0 0.00 0.08 0.08 93 1009.8
20260506013212 46 140 0.0 0.0 0.07 0.08 0.08 92 1010.0
20260506012708 46 148 0.0 0.0 0.07 0.08 0.08 92 1009.4
20260506012205 47 91 1.0 2.0 0.05 0.07 0.07 92 1010.1
20260506011702 47 142 0.0 0.0 0.05 0.07 0.07 92 1009.9
20260506011158 47 144 0.0 0.0 0.00 0.06 0.06 91 1009.8
20260506010657 47 143 0.0 1.0 0.07 0.06 0.06 91 1010.1
20260506010154 47 164 0.0 0.0 0.07 0.06 0.06 91 1009.7
20260506005651 47 127 0.0 1.0 0.00 0.05 0.05 90 1009.6
20260506005147 47 167 0.0 1.0 0.00 0.05 0.05 90 1009.8
20260506004643 47 141 0.0 1.0 0.05 0.05 0.05 89 1009.4
20260506004141 47 193 2.0 2.0 0.05 0.05 0.05 88 1009.6
20260506003637 48 131 1.0 2.0 0.00 0.04 0.04 87 1009.6
20260506003133 48 135 0.0 2.0 0.00 0.04 0.04 87 1009.3
20260506002629 49 158 2.0 2.0 0.14 0.04 0.04 85 1009.8
20260506002126 50 261 1.0 3.0 0.14 0.04 0.04 83 1009.4
20260506001621 51 235 2.0 2.0 0.00 0.02 0.02 78 1009.8
20260506001119 53 209 3.0 3.0 0.00 0.02 0.02 74 1009.2
20260506000616 53 199 1.0 1.0 0.00 0.02 0.02 73 1008.9
20260506000114 53 179 1.0 1.0 0.00 0.02 0.02 73 1008.8
20260505235612 54 169 1.0 1.0 0.00 0.02 0.02 74 1009.0
20260505235108 54 203 1.0 2.0 0.00 0.02 0.02 73 1008.8
20260505234605 54 160 1.0 2.0 0.00 0.02 0.02 73 1008.6
20260505234102 55 143 2.0 3.0 0.00 0.02 0.02 73 1008.8
20260505233600 55 251 3.0 3.0 0.00 0.02 0.02 75 1008.5
20260505233057 56 272 3.0 3.0 0.00 0.02 0.02 74 1008.2
20260505232555 56 160 3.0 3.0 0.00 0.02 0.02 73 1008.0
20260505232052 56 226 3.0 5.0 0.00 0.02 0.02 74 1008.0
20260505231548 57 262 4.0 5.0 0.00 0.02 0.02 74 1007.9
20260505231047 57 247 5.0 5.0 0.00 0.02 0.02 72 1007.9
20260505230544 57 268 3.0 3.0 0.00 0.02 0.02 72 1007.5
20260505230040 58 267 4.0 5.0 0.00 0.02 0.02 71 1007.4
20260505225537 58 157 2.0 2.0 0.00 0.02 0.02 72 1007.4
20260505225033 59 316 3.0 3.0 0.00 0.02 0.02 72 1007.3
20260505224531 60 294 4.0 7.0 0.00 0.02 0.02 74 1007.0
20260505224028 60 115 1.0 2.0 0.00 0.02 0.02 75 1006.9
20260505223525 60 36 0.0 1.0 0.00 0.02 0.02 77 1006.7
20260505223021 60 226 1.0 2.0 0.00 0.02 0.02 77 1006.6
20260505222517 60 91 2.0 3.0 0.00 0.02 0.02 76 1006.5
20260505222013 61 156 2.0 2.0 0.00 0.02 0.02 78 1006.6
20260505221511 61 155 1.0 1.0 0.00 0.02 0.02 78 1006.3
20260505221008 62 122 0.0 1.0 0.00 0.02 0.02 77 1005.8
20260505220504 62 98 1.0 1.0 0.00 0.02 0.02 78 1005.9
20260505220002 62 166 0.0 1.0 0.00 0.02 0.02 78 1006.0
20260505215500 63 135 1.0 1.0 0.00 0.02 0.02 76 1005.9
20260505214958 64 128 2.0 2.0 0.00 0.02 0.02 79 1005.9
20260505214456 63 186 2.0 2.0 0.00 0.02 0.02 82 1005.8
20260505213952 63 158 1.0 1.0 0.00 0.02 0.02 86 1005.7
20260505213450 62 166 0.0 0.0 0.00 0.02 0.02 87 1005.8
20260505212946 62 180 1.0 2.0 0.00 0.02 0.02 87 1005.7
20260505212443 62 181 1.0 2.0 0.00 0.02 0.02 87 1005.6
20260505211939 62 176 1.0 2.0 0.00 0.02 0.02 88 1005.5
20260505211437 62 188 1.0 1.0 0.00 0.02 0.02 88 1005.6
20260505210933 61 190 2.0 2.0 0.00 0.02 0.02 87 1005.5
20260505210431 61 196 2.0 2.0 0.00 0.02 0.02 89 1005.7
20260505205927 61 179 1.0 1.0 0.00 0.02 0.02 88 1005.5
20260505205426 62 177 0.0 1.0 0.00 0.02 0.02 87 1005.5
20260505204922 62 168 1.0 1.0 0.00 0.02 0.02 86 1005.3
20260505204420 63 206 1.0 2.0 0.00 0.02 0.02 85 1005.4
20260505203917 63 169 0.0 1.0 0.00 0.02 0.02 83 1005.3
20260505203414 64 188 1.0 2.0 0.00 0.02 0.02 82 1005.4
20260505202910 66 214 3.0 3.0 0.00 0.02 0.02 78 1005.2
20260505202406 67 187 1.0 1.0 0.00 0.02 0.02 73 1004.9
20260505201903 67 175 1.0 1.0 0.00 0.02 0.02 73 1004.8
20260505201400 67 189 1.0 2.0 0.00 0.02 0.02 74 1005.1
20260505200858 67 189 1.0 1.0 0.00 0.02 0.02 74 1005.2
20260505200355 67 192 2.0 2.0 0.00 0.02 0.02 73 1005.0
20260505195850 67 196 2.0 2.0 0.00 0.02 0.02 73 1005.0
20260505195348 67 212 2.0 2.0 0.00 0.02 0.02 72 1005.2
20260505194845 66 213 3.0 3.0 0.00 0.02 0.02 74 1005.1
20260505194342 66 213 2.0 2.0 0.00 0.02 0.02 74 1005.4
20260505193837 66 242 4.0 5.0 0.00 0.02 0.02 74 1005.2
20260505193336 66 226 3.0 5.0 0.00 0.02 0.02 75 1005.1
20260505192833 65 203 3.0 3.0 0.00 0.02 0.02 81 1005.3
20260505192331 65 171 1.0 1.0 0.00 0.02 0.02 81 1005.5
20260505191828 65 159 0.0 0.0 0.00 0.02 0.02 82 1005.2
20260505191327 64 195 2.0 3.0 0.00 0.02 0.02 81 1005.2
20260505190823 64 192 1.0 2.0 0.00 0.02 0.02 82 1005.3
20260505190319 63 203 3.0 3.0 0.00 0.02 0.02 84 1005.3
20260505185815 62 212 3.0 3.0 0.00 0.02 0.02 87 1005.2
20260505185311 61 189 3.0 5.0 0.00 0.02 0.02 89 1005.2
20260505184807 60 186 2.0 2.0 0.00 0.02 0.02 90 1005.2
20260505184304 59 190 1.0 1.0 0.00 0.02 0.02 91 1005.3
20260505183801 59 167 1.0 1.0 0.00 0.02 0.02 91 1005.3
20260505183258 58 188 1.0 1.0 0.00 0.02 0.02 91 1005.5
20260505182755 58 211 2.0 2.0 0.00 0.02 0.02 90 1005.1
20260505182252 58 196 3.0 3.0 0.00 0.02 0.02 88 1005.1
20260505181748 59 220 6.0 9.0 0.05 0.02 0.02 87 1006.1
20260505181246 59 252 4.0 5.0 0.12 0.02 0.02 89 1005.6
20260505180742 59 236 5.0 6.0 0.07 0.01 0.01 88 1005.6
20260505180239 60 268 10.0 10.0 0.00 0.00 0.00 85 1005.7
20260505175735 62 247 5.0 6.0 0.00 0.00 0.00 81 1005.4
20260505175232 62 250 5.0 6.0 0.00 0.00 0.00 81 1004.9
20260505174728 64 255 4.0 5.0 0.00 0.00 0.00 77 1005.1
20260505174226 64 231 3.0 3.0 0.00 0.00 0.00 74 1004.6
20260505173721 63 213 3.0 3.0 0.00 0.00 0.00 76 1004.4
20260505173218 62 223 3.0 3.0 0.00 0.00 0.00 77 1004.7
20260505172715 62 215 3.0 5.0 0.00 0.00 0.00 79 1004.6
20260505172213 62 230 4.0 5.0 0.00 0.00 0.00 79 1004.8
20260505171712 64 234 9.0 10.0 0.00 0.00 0.00 78 1004.9
20260505171210 69 229 5.0 5.0 0.00 0.00 0.00 65 1004.8
20260505170706 69 218 5.0 6.0 0.00 0.00 0.00 57 1004.6
20260505170203 70 234 3.0 5.0 0.00 0.00 0.00 57 1004.5
20260505165658 70 222 5.0 6.0 0.00 0.00 0.00 57 1004.5
20260505165154 70 213 4.0 6.0 0.00 0.00 0.00 56 1004.4
20260505164650 70 216 3.0 3.0 0.00 0.00 0.00 56 1004.5
20260505164147 71 214 5.0 6.0 0.00 0.00 0.00 57 1004.5
20260505163645 71 216 5.0 6.0 0.00 0.00 0.00 58 1004.0
20260505163143 70 204 3.0 5.0 0.00 0.00 0.00 57 1004.1
20260505162640 70 227 5.0 7.0 0.00 0.00 0.00 57 1004.1
20260505162138 70 206 3.0 3.0 0.00 0.00 0.00 57 1004.1
20260505161635 70 220 3.0 3.0 0.00 0.00 0.00 57 1004.0
20260505161132 70 224 3.0 3.0 0.00 0.00 0.00 57 1004.0
20260505160630 70 221 3.0 3.0 0.00 0.00 0.00 58 1003.8
20260505160127 70 206 4.0 5.0 0.00 0.00 0.00 59 1004.0
20260505153107 70 202 2.0 3.0 0.00 0.00 0.00 59 1004.5
20260505152603 70 233 5.0 6.0 0.00 0.00 0.00 57 1004.4
20260505152059 70 219 5.0 6.0 0.00 0.00 0.00 58 1004.4
20260505151554 70 206 7.0 8.0 0.00 0.00 0.00 57 1004.6
20260505151052 70 204 3.0 3.0 0.00 0.00 0.00 60 1004.5
20260505150548 70 218 6.0 8.0 0.00 0.00 0.00 57 1004.2
20260505140513 69 199 2.0 2.0 0.00 0.00 0.00 61 1004.0
20260505124926 66 204 3.0 5.0 0.00 0.00 0.00 64 1004.4
20260505124423 66 212 5.0 7.0 0.00 0.00 0.00 64 1004.2
20260505123919 65 182 5.0 6.0 0.00 0.00 0.00 64 1004.4
20260505123416 65 207 2.0 2.0 0.00 0.00 0.00 65 1004.4
20260505122912 65 211 3.0 3.0 0.00 0.00 0.00 67 1004.4
20260505122410 64 194 3.0 5.0 0.00 0.00 0.00 67 1004.3
20260505121906 64 214 3.0 3.0 0.00 0.00 0.00 67 1004.3
20260505121403 64 192 1.0 2.0 0.00 0.00 0.00 67 1004.4
20260505120859 64 221 1.0 2.0 0.00 0.00 0.00 67 1004.5
20260505120356 64 222 5.0 8.0 0.00 0.00 0.00 68 1004.4
20260505115854 64 199 4.0 5.0 0.00 0.00 0.00 67 1004.5
20260505115352 64 214 2.0 3.0 0.00 0.00 0.00 67 1004.0
20260505114849 64 180 1.0 1.0 0.00 0.00 0.00 67 1004.4
20260505114345 64 193 2.0 2.0 0.00 0.00 0.00 67 1004.2
20260505113842 64 210 3.0 3.0 0.00 0.00 0.00 67 1004.1
20260505113339 63 202 5.0 7.0 0.00 0.00 0.00 66 1004.2
20260505112834 63 229 4.0 6.0 0.00 0.00 0.00 67 1004.1
20260505112332 63 192 3.0 3.0 0.00 0.00 0.00 67 1004.0
20260505111827 62 202 4.0 5.0 0.00 0.00 0.00 67 1004.1
20260505111323 62 201 3.0 3.0 0.00 0.00 0.00 68 1004.0
20260505110819 61 187 3.0 3.0 0.00 0.00 0.00 69 1004.2
20260505110317 61 205 2.0 2.0 0.00 0.00 0.00 70 1003.9
20260505101751 62 187 1.0 1.0 0.00 0.00 0.00 69 1003.5
20260505101247 62 189 3.0 3.0 0.00 0.00 0.00 69 1003.6
20260505100743 62 182 2.0 2.0 0.00 0.00 0.00 69 1003.4
20260505100240 62 188 2.0 2.0 0.00 0.00 0.00 69 1003.3
20260505095735 62 193 2.0 2.0 0.00 0.00 0.00 70 1003.3
20260505095234 61 204 3.0 3.0 0.00 0.00 0.00 70 1003.6
20260505094729 61 202 3.0 3.0 0.00 0.00 0.00 70 1003.3
20260505094226 61 204 2.0 3.0 0.00 0.00 0.00 71 1003.5
20260505093722 60 175 3.0 5.0 0.00 0.00 0.00 72 1003.6
20260505093220 60 202 2.0 2.0 0.00 0.00 0.00 74 1003.5
20260505092716 58 215 2.0 3.0 0.00 0.00 0.00 77 1003.4
20260505092215 57 184 1.0 1.0 0.00 0.00 0.00 82 1003.5
20260505091712 56 153 0.0 0.0 0.00 0.00 0.00 85 1003.8
20260505091210 56 164 0.0 0.0 0.00 0.00 0.00 86 1003.6
20260505090707 56 161 0.0 0.0 0.00 0.00 0.00 86 1003.6
20260505090205 56 165 0.0 0.0 0.00 0.00 0.00 87 1003.5
20260505085702 56 151 0.0 0.0 0.00 0.00 0.00 87 1003.6
20260505085201 56 159 0.0 0.0 0.00 0.00 0.00 88 1003.5
20260505084658 56 156 0.0 0.0 0.00 0.00 0.00 88 1003.5
20260505084156 56 154 0.0 0.0 0.00 0.00 0.00 87 1003.4
20260505083653 56 159 0.0 0.0 0.00 0.00 0.00 87 1003.5
20260505083150 57 159 0.0 0.0 0.00 0.00 0.00 86 1003.5
20260505082645 57 171 0.0 0.0 0.00 0.00 0.00 85 1003.4
20260505082143 57 180 1.0 1.0 0.00 0.00 0.00 84 1003.8
20260505081639 57 195 2.0 2.0 0.00 0.00 0.00 84 1004.1
20260505081137 57 186 1.0 1.0 0.00 0.00 0.00 84 1004.4
20260505080633 58 184 1.0 1.0 0.00 0.00 0.00 83 1004.0
20260505080129 58 197 2.0 2.0 0.00 0.00 0.00 81 1004.3
20260505075625 59 225 4.0 5.0 0.00 0.00 0.00 80 1004.5
20260505075122 60 206 4.0 5.0 0.00 0.00 0.00 78 1004.4
20260505074619 62 214 3.0 3.0 0.00 0.00 0.00 66 1004.3
20260505074116 61 199 2.0 2.0 0.00 0.00 0.00 66 1004.4
20260505073614 61 191 2.0 2.0 0.00 0.00 0.00 66 1004.0
20260505073112 61 185 1.0 2.0 0.00 0.00 0.00 67 1004.2
20260505072607 60 189 1.0 1.0 0.00 0.00 0.00 68 1004.2
20260505072104 60 169 1.0 1.0 0.00 0.00 0.00 70 1003.9
20260505071559 60 192 2.0 3.0 0.00 0.00 0.00 71 1003.9
20260505071057 60 189 1.0 2.0 0.00 0.00 0.00 71 1004.1
20260505070554 60 195 2.0 2.0 0.00 0.00 0.00 72 1004.1
20260505070050 59 171 0.0 1.0 0.00 0.00 0.00 74 1004.3
20260505065546 59 169 0.0 0.0 0.00 0.00 0.00 76 1004.4
20260505065043 60 182 1.0 1.0 0.00 0.00 0.00 75 1004.3
20260505064540 59 208 2.0 3.0 0.00 0.00 0.00 75 1004.3
20260505064039 59 169 0.0 1.0 0.00 0.00 0.00 76 1004.1
20260505063536 59 191 1.0 2.0 0.00 0.00 0.00 76 1003.9
20260505063031 59 178 1.0 1.0 0.00 0.00 0.00 76 1004.0
20260505062528 59 187 1.0 2.0 0.00 0.00 0.00 77 1003.9
20260505062026 59 184 1.0 2.0 0.00 0.00 0.00 78 1003.8
20260505061523 59 214 4.0 5.0 0.00 0.00 0.00 77 1004.0
20260505061021 60 192 6.0 7.0 0.00 0.00 0.00 75 1004.2
20260505060518 60 229 5.0 6.0 0.00 0.00 0.00 73 1004.4
20260505060015 61 183 4.0 6.0 0.00 0.00 0.00 69 1004.2
20260505055510 61 204 4.0 5.0 0.00 0.00 0.00 67 1004.2
20260505055007 62 217 4.0 6.0 0.00 0.00 0.00 65 1004.2
20260505054504 62 206 4.0 5.0 0.00 0.00 0.00 63 1004.0
20260505054002 62 207 3.0 3.0 0.00 0.00 0.00 62 1004.0
20260505053459 62 227 3.0 3.0 0.00 0.00 0.00 62 1004.0
20260505052955 62 191 3.0 3.0 0.00 0.00 0.00 61 1004.1
20260505052453 63 226 3.0 3.0 0.00 0.00 0.00 57 1004.4
20260505051950 63 209 4.0 5.0 0.00 0.00 0.00 55 1004.1
20260505051447 63 205 3.0 3.0 0.00 0.00 0.00 54 1004.3
20260505050945 63 194 3.0 3.0 0.00 0.00 0.00 54 1004.4
20260505050443 63 188 2.0 3.0 0.00 0.00 0.00 54 1004.4